Wind_Speed
27 27 26 26 28 27 26 25 25 24 23 22 21 20 19 18 17 16 15 14 13 13 13 12 12 12 12 11 11 10 11 12 13 12 12 12 11 11 11 11 12 11 11 10 10 10 10 11 11 10 10 10 10 11 11 12 11 10 10 10 10 10 9
26 26 26 26 27 28 27 27 26 24 22 21 20 21 20 19 18 17 16 15 14 13 12 12 12 12 12 12 11 11 11 11 11 11 11 11 10 10 10 10 11 11 11 11 10 10 10 10 11 10 11 11 11 11 12 12 12 11 11 10 10 10 10
26 26 26 27 27 27 27 28 27 25 23 21 20 21 21 20 19 18 17 16 14 13 12 13 13 13 13 13 12 11 11 11 11 10 10 10 10 10 10 9 10 10 11 10 10 9 9 10 10 10 10 11 11 12 12 12 12 12 11 11 11 11 11
26 27 26 26 27 27 27 28 27 25 24 22 21 19 19 19 19 18 17 16 16 14 12 12 14 14 14 13 13 12 12 12 11 11 11 11 10 10 10 10 10 10 10 10 10 9 9 9 9 9 10 10 11 11 11 11 11 11 11 11 11 11 11
28 29 29 28 28 28 28 28 27 26 25 23 22 19 18 18 19 19 18 17 17 16 14 13 14 15 15 14 14 14 13 13 13 13 13 12 11 10 10 11 10 10 10 10 10 9 9 9 9 9 9 9 10 10 11 11 11 11 11 12 12 11 12
31 32 31 31 31 29 28 28 27 27 25 24 23 21 19 19 19 19 18 18 17 17 16 15 15 15 15 15 15 15 15 14 14 14 14 13 12 11 11 12 11 11 10 10 10 10 10 10 9 9 9 9 9 10 10 11 11 11 11 11 11 11 12
31 33 32 31 31 29 28 28 27 27 25 24 24 23 22 21 20 19 19 19 18 17 17 17 16 15 15 16 15 16 16 15 15 15 15 14 14 13 12 12 12 12 11 10 10 10 11 11 10 10 9 9 10 10 10 11 11 10 10 10 11 11 11
28 33 34 32 31 29 29 29 28 27 27 26 26 25 24 23 21 21 20 19 18 17 17 17 18 18 17 16 16 16 17 17 16 16 16 15 15 14 13 13 12 12 12 11 11 11 11 11 11 11 11 11 11 11 11 11 11 10 10 10 10 10 10
24 31 34 33 31 31 31 30 29 28 28 28 27 26 26 25 23 22 21 20 18 17 17 17 19 19 19 19 17 17 18 18 17 17 17 16 16 15 14 14 14 13 13 12 12 12 12 12 12 12 12 12 12 12 12 11 11 10 10 11 10 10 10
22 27 32 33 32 32 32 31 30 30 30 30 29 27 27 26 25 24 23 21 20 18 17 18 19 20 21 21 20 20 19 19 19 18 18 17 17 16 16 15 15 15 14 14 14 14 13 13 13 13 13 13 13 13 13 12 12 11 11 11 11 11 11
20 24 28 31 31 30 31 31 31 30 29 30 31 30 29 29 27 26 25 23 22 21 20 20 19 19 21 23 23 23 22 21 20 20 19 18 18 17 17 17 17 16 16 15 15 15 15 14 14 14 14 14 14 14 14 14 13 12 12 12 12 11 11
20 23 26 28 29 28 28 29 30 30 29 30 31 32 32 32 31 29 28 26 24 24 24 23 21 20 21 22 24 25 24 23 23 21 21 20 19 19 19 19 18 18 17 17 17 16 16 15 15 15 15 15 15 15 15 15 14 14 13 13 12 12 12
20 22 24 26 27 27 27 27 28 30 30 31 32 33 33 34 34 33 32 30 28 28 27 25 24 22 22 22 23 24 25 26 25 24 23 22 22 22 21 21 20 19 19 19 18 18 17 17 16 16 16 16 16 15 15 15 15 14 14 14 14 13 13
20 21 23 24 25 26 26 26 27 28 29 31 33 33 33 35 36 36 35 33 32 31 30 29 27 26 25 24 23 24 25 26 27 27 26 26 25 24 24 23 22 21 21 21 20 20 19 19 18 17 17 17 17 16 16 16 16 15 15 15 15 15 14
20 21 22 22 23 24 24 25 25 26 27 28 30 31 32 34 37 37 37 36 34 33 33 32 31 30 28 27 25 24 24 26 27 28 28 28 27 26 26 25 24 24 23 23 22 22 21 21 20 20 19 18 18 17 17 17 17 16 16 16 15 15 15
21 21 21 22 22 22 22 22 23 24 25 26 27 28 29 33 36 37 37 35 34 35 35 35 34 33 32 31 29 27 26 26 26 26 28 28 28 28 27 27 26 26 25 25 24 24 23 23 22 21 21 20 19 19 18 18 19 18 17 17 16 16 16
23 23 23 23 22 21 21 21 22 23 24 25 26 26 28 30 33 35 36 35 34 34 34 35 35 35 35 34 32 31 30 29 27 27 27 28 28 28 27 28 28 28 27 26 26 25 25 24 23 23 22 22 21 21 20 22 21 19 18 18 18 17 17
24 24 24 23 22 21 21 21 22 22 23 23 24 25 25 26 28 31 33 34 34 33 33 33 33 34 34 35 34 34 33 32 31 30 29 28 28 28 28 29 29 29 29 28 28 27 26 25 24 24 23 23 23 23 24 24 22 20 20 20 19 19 18
24 23 22 21 21 21 21 21 22 22 23 23 23 24 24 25 26 28 30 32 32 32 32 32 32 32 33 33 34 34 34 34 34 33 31 29 30 30 30 31 31 31 30 30 30 28 27 26 25 24 25 25 25 26 27 25 23 22 22 22 21 21 20
23 22 21 22 22 21 21 21 22 23 23 24 24 25 25 26 26 27 28 29 29 29 30 31 31 31 31 32 33 33 34 34 34 35 34 33 33 33 33 32 32 32 31 31 31 29 27 27 26 26 26 27 27 28 28 26 24 24 23 22 22 22 21
22 22 22 23 23 22 22 22 23 24 24 25 26 26 26 27 27 28 27 26 26 26 27 27 28 29 29 30 32 33 34 34 34 35 36 36 37 37 35 34 33 33 32 31 30 29 28 27 27 27 27 28 29 29 28 26 26 25 24 24 23 23 23
22 22 22 23 21 21 22 23 23 24 25 26 27 28 28 28 28 28 28 27 26 25 24 24 26 27 28 30 31 32 33 34 34 34 35 37 38 38 37 36 35 35 32 29 29 29 27 27 28 28 28 29 30 30 27 26 26 26 25 25 24 23 23
22 21 21 21 21 22 23 23 24 25 26 28 29 29 30 29 29 28 28 27 26 25 24 24 24 24 26 28 28 29 30 31 32 31 32 34 35 35 36 37 37 36 32 28 29 29 26 26 28 28 28 29 30 30 28 27 27 26 25 25 24 23 23
23 23 21 22 23 23 24 24 25 27 28 29 30 30 29 28 27 26 24 23 24 25 25 22 20 20 22 24 23 23 24 25 26 27 29 30 30 31 33 35 36 36 32 28 30 30 27 27 28 29 30 30 29 28 28 27 27 25 25 25 24 24 24
24 23 22 23 24 24 25 25 25 26 26 27 27 27 27 26 24 23 21 21 22 23 22 20 19 20 20 20 20 19 19 20 22 23 24 25 25 26 28 29 31 32 30 29 32 31 27 26 29 32 33 30 27 26 26 26 26 26 25 26 26 26 26
23 22 23 23 24 24 23 22 20 19 19 19 19 18 19 21 21 21 21 21 19 18 18 19 20 21 20 20 20 20 20 21 22 21 21 21 21 21 23 24 25 27 29 29 31 32 29 27 29 31 31 29 26 26 25 24 25 25 25 25 25 26 26
22 22 23 22 21 20 19 18 16 13 13 14 15 13 13 15 17 19 20 20 18 16 17 19 19 20 22 23 23 23 22 22 22 22 22 22 20 18 18 18 17 21 26 29 32 33 30 28 28 28 27 25 25 25 23 23 23 23 23 23 23 24 24
21 21 21 20 18 17 17 17 15 13 12 13 14 13 13 13 14 15 17 18 17 16 16 17 17 19 21 22 22 21 21 19 20 22 23 21 19 16 15 13 12 13 16 19 23 25 25 24 23 21 20 21 22 22 22 22 22 22 22 22 22 21 21
19 17 17 16 15 15 15 15 15 14 13 13 13 13 13 13 13 12 13 15 16 16 15 15 16 16 17 18 18 16 16 17 18 20 21 20 18 16 15 15 14 12 11 11 14 19 23 25 24 22 22 22 22 22 23 22 22 21 21 21 21 21 20
18 17 16 15 14 14 14 14 13 14 14 13 13 12 12 13 12 11 12 12 13 15 14 13 14 14 13 14 14 13 15 17 16 16 18 18 17 15 15 15 15 13 13 13 15 18 22 23 23 23 23 23 21 21 20 18 17 17 17 16 17 17 18
20 19 18 17 15 15 15 15 13 13 14 14 13 13 12 12 11 11 12 12 12 13 13 12 12 12 10 9 9 10 12 14 13 10 12 14 15 14 14 15 15 14 13 12 13 15 16 15 16 16 16 15 14 13 11 11 11 11 10 10 10 10 12
24 21 20 19 17 17 17 17 16 15 15 14 13 13 12 12 12 11 12 12 12 12 12 11 11 11 10 9 9 9 10 11 10 9 9 11 13 13 13 12 12 13 13 12 12 12 10 10 10 9 8 8 8 7 7 8 9 9 9 9 10 10 11
26 25 24 22 20 21 21 19 18 17 15 14 13 12 12 12 12 11 11 12 12 12 12 12 11 11 11 11 10 9 9 9 9 9 9 9 10 10 10 9 9 10 11 10 10 9 8 7 8 8 7 8 8 8 8 8 9 10 10 11 12 13 13
29 29 28 26 25 24 23 22 20 18 17 15 14 13 13 13 12 12 12 11 12 12 12 12 11 11 11 11 11 10 10 10 10 9 9 8 8 8 8 8 8 8 8 8 8 8 7 8 8 8 9 10 10 10 11 11 12 13 13 14 16 16 17
29 28 27 27 28 27 25 24 23 20 18 17 16 15 14 13 13 13 13 12 12 12 12 12 12 12 11 11 10 10 10 10 10 9 9 9 9 9 9 9 9 9 8 8 8 8 9 9 10 10 11 12 12 13 14 14 15 16 16 18 19 20 20
31 30 28 28 29 28 26 25 23 21 19 18 17 16 14 13 12 12 12 13 12 12 13 13 13 13 13 12 12 11 11 11 11 11 11 11 10 10 10 10 11 11 10 10 10 11 11 12 12 13 14 14 15 16 17 17 18 18 19 20 20 21 22
34 32 30 30 29 28 27 26 25 23 21 19 18 16 14 13 12 12 12 12 12 12 13 13 14 14 14 14 14 14 14 14 13 13 13 13 13 13 13 13 13 13 13 13 13 13 14 14 15 16 16 17 18 18 19 19 20 20 20 21 21 22 22
35 35 33 31 29 27 27 27 27 25 23 21 19 17 15 13 12 11 11 10 10 11 12 13 14 15 15 15 15 15 16 16 16 16 16 16 15 16 16 16 16 16 16 16 16 16 17 17 18 18 18 19 20 20 20 21 21 21 21 21 21 21 21
Wind_Direction
201 202 202 203 200 198 198 197 195 194 193 192 194 196 198 199 200 197 192 191 188 184 185 188 190 191 190 187 182 177 173 176 179 181 184 185 185 187 186 185 184 182 181 185 187 188 190 192 194 195 194 194 193 193 193 195 196 195 194 192 192 191 189
201 199 199 199 196 195 196 193 188 188 189 191 194 198 200 202 202 199 194 192 190 188 188 190 193 196 198 195 189 185 182 181 184 186 188 187 184 186 191 194 195 191 189 192 193 192 193 195 197 199 200 199 199 198 198 200 202 202 201 199 201 203 201
202 199 196 195 194 193 194 192 186 184 187 192 197 200 202 205 205 203 199 196 194 191 190 191 194 197 202 203 198 192 191 190 188 190 193 195 192 191 194 197 201 201 198 198 197 195 198 201 202 201 202 203 204 204 203 204 206 207 206 205 206 209 209
204 200 196 195 194 192 192 192 187 185 189 193 196 200 203 206 206 206 204 201 198 195 192 192 195 199 203 206 206 201 197 197 196 195 197 202 203 201 201 203 205 205 204 202 200 199 203 208 209 207 207 206 206 208 209 209 210 211 210 210 211 214 215
206 203 199 194 192 191 191 190 187 188 191 192 193 195 200 203 204 206 206 204 203 200 197 196 198 203 205 207 209 207 204 203 202 201 201 203 206 206 207 210 211 210 208 206 205 204 207 211 213 213 212 210 210 212 214 214 215 217 217 217 218 220 221
205 205 201 195 192 191 190 189 188 190 190 191 193 193 197 202 202 203 206 206 207 206 204 202 202 205 209 210 211 210 209 208 208 208 206 205 205 206 208 212 217 218 214 210 208 209 211 213 215 217 215 215 214 214 217 219 221 223 225 225 226 227 228
205 204 202 197 192 190 189 189 189 190 190 191 192 192 196 201 201 203 207 208 208 209 209 209 208 208 212 214 214 213 212 211 213 214 212 209 208 209 210 213 219 224 223 217 212 212 214 216 218 219 219 219 220 220 222 226 226 227 230 232 232 234 235
206 203 203 200 196 193 192 191 190 192 192 193 194 194 195 199 201 203 207 208 208 209 211 213 213 212 214 218 218 217 215 214 215 217 218 215 213 214 215 217 220 225 228 225 220 217 217 220 222 223 223 224 226 227 229 232 231 230 232 235 236 238 239
206 201 202 204 204 203 200 195 194 195 195 195 197 198 197 200 202 203 206 207 208 209 211 214 216 216 217 219 221 220 219 218 217 219 221 221 220 219 220 222 224 226 228 228 227 223 222 223 224 226 227 229 231 232 234 236 237 236 236 237 239 240 240
207 199 199 203 206 208 207 202 199 199 198 197 198 199 201 203 203 205 207 208 210 212 214 216 217 217 218 220 222 224 223 221 220 221 223 224 225 224 225 228 231 231 230 230 230 229 227 227 227 227 229 232 233 233 234 236 238 240 240 240 240 241 241
207 200 199 201 203 207 209 208 207 207 205 202 200 200 202 205 206 208 209 211 213 217 219 219 218 217 219 220 223 226 227 227 225 224 224 226 228 229 229 230 233 235 234 233 233 233 231 231 231 230 230 232 234 233 234 235 236 239 241 242 243 243 242
207 201 200 201 202 204 206 209 212 213 212 210 207 205 205 206 208 211 211 211 215 220 224 225 223 221 222 222 224 227 229 230 230 229 227 227 228 231 232 232 234 236 237 237 237 237 236 236 236 235 233 233 234 235 236 236 237 238 240 243 245 245 246
212 204 201 203 204 205 207 209 211 211 212 214 213 212 211 209 209 213 213 212 214 220 225 229 230 229 228 227 227 228 230 231 232 232 231 230 229 231 233 234 236 237 238 239 239 239 239 239 239 239 237 236 236 238 239 240 241 242 243 244 247 248 250
215 207 204 205 207 208 210 212 213 214 215 215 214 214 215 213 212 214 215 215 215 218 222 226 230 232 233 233 231 230 230 232 232 233 233 233 232 233 234 235 237 238 239 239 240 240 240 240 240 240 240 239 238 239 241 242 244 245 245 245 247 249 251
214 210 208 209 210 210 211 214 216 218 218 217 216 216 216 216 216 216 218 220 219 219 222 226 229 232 235 237 237 234 232 232 232 233 234 234 234 235 236 237 238 239 240 240 240 240 240 240 240 240 240 240 239 240 241 244 245 246 246 246 246 248 250
213 209 208 209 209 208 210 214 217 219 219 217 217 216 216 216 216 217 221 223 221 220 222 225 229 231 234 237 240 240 237 235 234 234 235 236 236 236 237 238 239 239 240 241 241 240 240 239 239 240 240 240 241 241 242 244 245 244 245 246 247 248 251
210 208 207 208 209 211 215 219 220 220 219 216 215 215 215 215 215 216 220 222 222 221 222 225 228 231 233 235 237 239 238 238 237 236 236 238 238 237 237 238 239 239 239 239 239 240 241 240 240 240 240 241 240 240 241 243 244 245 246 247 249 250 251
210 210 211 211 215 218 221 223 222 219 216 214 213 214 215 216 216 217 219 222 223 224 224 226 227 229 230 231 233 235 236 237 238 238 238 239 239 238 236 237 239 240 239 239 238 239 240 240 240 240 240 241 240 240 240 241 243 245 247 248 249 250 251
211 213 213 213 215 217 218 220 219 218 216 214 213 213 213 215 216 217 219 222 225 225 225 227 227 227 227 229 231 232 232 234 236 237 237 238 239 238 235 234 237 238 239 239 238 238 238 241 242 242 242 242 242 242 242 243 244 245 246 249 250 251 252
209 210 211 214 216 216 217 218 219 220 221 221 220 219 219 218 218 218 219 222 224 223 222 224 225 226 227 229 232 233 232 232 234 235 236 236 237 238 237 235 236 237 239 240 240 239 238 240 242 243 243 245 245 245 246 246 245 246 247 249 251 252 253
211 210 213 218 219 219 221 221 222 222 224 225 226 226 226 225 223 222 221 222 223 223 222 223 224 226 228 230 232 233 232 233 233 234 235 235 235 237 240 241 241 240 238 239 241 242 240 240 242 243 245 246 247 248 248 247 247 247 247 248 250 252 253
215 213 215 220 220 221 223 224 225 226 226 227 228 229 229 229 229 228 227 226 226 225 226 225 224 223 222 224 227 229 230 232 233 234 235 236 237 237 239 243 245 244 240 239 242 244 242 241 241 242 244 245 247 248 248 247 247 246 246 246 247 250 251
214 212 215 220 220 222 225 226 228 230 231 232 232 232 232 231 231 230 229 229 229 229 229 227 225 223 222 223 225 227 229 231 234 236 238 241 243 242 241 243 244 243 240 239 244 246 244 242 243 244 244 244 247 249 249 248 247 246 246 246 246 248 250
211 208 211 217 220 223 224 226 228 230 232 234 235 234 233 231 230 228 226 222 220 222 225 225 223 222 224 225 224 225 229 233 238 240 242 245 247 247 245 245 244 242 237 235 241 245 243 241 242 244 244 242 243 247 248 248 248 247 247 247 248 249 250
213 205 206 212 215 219 222 224 227 231 234 236 237 236 233 228 226 223 216 209 208 211 215 216 216 216 218 219 218 218 222 229 235 239 240 241 242 243 244 244 242 240 236 234 238 240 241 241 241 243 245 244 243 244 246 247 247 248 250 251 250 250 249
209 202 203 207 210 215 217 218 221 224 228 228 227 228 225 221 220 217 210 205 206 209 210 209 209 211 212 212 213 214 217 222 227 231 235 237 239 242 244 241 239 237 234 233 234 234 236 239 240 242 244 244 244 245 246 247 249 249 251 252 250 249 248
204 200 200 201 204 206 203 201 203 202 203 204 200 199 202 203 207 210 208 206 208 211 213 211 207 207 210 212 213 216 219 224 226 226 229 232 234 239 241 237 235 234 230 229 230 230 231 234 236 239 243 243 244 247 247 248 250 249 250 251 251 251 249
203 197 194 193 192 189 186 189 191 187 185 187 188 190 191 190 192 197 200 202 203 204 208 209 207 207 208 210 212 214 216 222 227 225 224 223 221 224 230 231 232 234 230 226 224 220 221 225 226 229 236 239 241 244 246 247 248 248 249 251 251 251 251
212 198 191 191 186 180 183 188 188 185 181 181 183 185 187 186 186 192 197 201 204 208 212 211 210 212 212 212 215 213 210 216 222 218 215 216 216 217 224 231 234 235 232 224 213 208 212 216 214 214 223 230 234 237 240 244 246 247 248 248 249 250 251
216 196 188 194 190 181 179 182 185 183 178 176 177 178 178 178 177 181 187 191 199 209 214 214 212 213 213 212 213 214 216 223 225 214 206 210 215 215 218 225 229 228 226 222 218 217 219 217 214 217 221 222 225 228 230 234 240 244 246 249 252 254 254
195 184 184 191 191 182 176 174 178 179 174 172 173 172 172 173 170 169 175 179 184 192 200 205 206 205 203 199 194 197 208 218 222 211 199 205 210 207 208 216 219 216 214 212 215 220 220 214 216 221 220 216 218 217 212 214 223 230 236 243 250 255 257
185 187 187 186 185 184 180 174 174 176 175 173 172 172 173 175 174 173 176 178 179 182 188 194 195 193 193 192 187 186 192 200 203 196 192 200 203 198 199 206 209 206 203 198 199 206 206 202 210 222 226 224 226 223 217 219 225 231 239 246 252 257 261
186 192 192 187 186 190 188 181 177 177 176 175 174 176 179 182 185 188 188 186 186 187 189 193 193 193 195 196 197 196 196 199 203 200 197 200 203 201 202 208 211 210 209 208 208 209 209 210 217 227 237 244 246 247 248 249 253 257 262 266 270 273 276
194 196 195 189 187 189 188 184 181 180 181 182 178 176 179 183 189 195 199 199 200 201 201 203 204 205 205 206 207 207 207 208 211 211 210 212 214 215 218 222 225 224 223 227 232 233 233 236 238 241 247 253 258 262 265 268 270 273 275 277 279 280 282
206 208 203 192 187 187 186 184 184 183 184 184 180 177 179 181 185 192 198 202 206 209 210 213 216 218 219 219 219 219 220 220 221 222 222 223 224 227 230 234 238 241 242 243 247 251 253 255 257 260 263 265 268 272 274 275 276 277 278 279 280 282 283
213 213 209 198 190 187 185 186 188 188 187 186 185 185 187 187 188 191 194 199 204 210 213 216 220 224 227 229 229 229 231 232 233 233 233 234 236 238 240 243 246 250 253 254 257 259 263 265 268 270 272 273 274 275 276 277 277 278 278 279 280 281 282
217 213 209 204 196 189 187 189 192 193 192 192 194 197 198 198 199 198 196 198 202 207 212 217 221 224 227 229 231 234 236 238 239 240 241 241 243 245 247 249 251 254 257 260 263 264 265 267 268 269 271 272 274 275 276 276 277 278 279 280 281 282 282
221 217 212 209 206 200 195 195 196 196 196 198 201 206 208 209 210 209 207 206 208 210 214 219 222 225 227 229 230 233 235 237 240 242 244 245 247 248 250 252 254 256 258 260 262 264 266 267 268 269 270 271 273 274 275 277 278 279 280 281 281 282 283
Height
3196 3198 3199 3201 3203 3206 3208 3211 3213 3215 3216 3218 3219 3221 3223 3224 3226 3227 3229 3230 3231 3232 3233 3234 3235 3236 3237 3239 3240 3241 3241 3242 3243 3244 3245 3246 3247 3248 3248 3249 3250 3251 3252 3253 3253 3254 3254 3255 3256 3256 3257 3258 3259 3259 3260 3261 3261 3262 3263 3264 3264 3265 3265
3194 3196 3198 3200 3202 3205 3207 3210 3211 3213 3215 3217 3218 3220 3222 3223 3225 3227 3228 3229 3230 3231 3232 3234 3235 3236 3237 3238 3239 3240 3241 3242 3243 3244 3245 3246 3247 3247 3248 3249 3250 3250 3251 3252 3253 3254 3254 3255 3255 3256 3257 3258 3258 3259 3259 3260 3261 3261 3262 3263 3264 3264 3265
3193 3195 3197 3199 3201 3204 3206 3209 3210 3212 3214 3216 3217 3219 3220 3222 3224 3226 3227 3228 3229 3230 3231 3233 3234 3235 3236 3237 3238 3239 3240 3241 3242 3243 3244 3245 3246 3247 3248 3249 3249 3250 3251 3251 3252 3253 3254 3255 3255 3256 3256 3257 3258 3258 3259 3260 3260 3261 3262 3262 3263 3264 3264
3192 3194 3197 3199 3201 3203 3205 3207 3209 3211 3213 3215 3216 3218 3220 3221 3223 3225 3226 3227 3228 3229 3230 3232 3233 3234 3235 3236 3238 3239 3240 3240 3241 3242 3243 3244 3245 3246 3247 3248 3249 3250 3250 3251 3252 3253 3253 3254 3255 3256 3256 3257 3257 3258 3259 3259 3260 3260 3261 3262 3262 3263 3263
3190 3193 3195 3198 3200 3202 3204 3206 3208 3210 3212 3214 3216 3217 3219 3220 3222 3223 3225 3226 3227 3228 3229 3231 3232 3233 3234 3235 3237 3238 3239 3240 3240 3241 3242 3243 3245 3246 3246 3247 3248 3249 3250 3250 3251 3252 3253 3254 3255 3255 3256 3257 3257 3258 3258 3259 3260 3260 3261 3261 3262 3262 3263
3187 3190 3193 3195 3198 3201 3203 3205 3207 3209 3211 3213 3215 3216 3217 3219 3221 3222 3224 3225 3226 3227 3228 3229 3231 3232 3233 3234 3236 3237 3238 3239 3240 3240 3241 3242 3244 3245 3246 3247 3247 3248 3249 3250 3251 3252 3252 3253 3254 3255 3256 3256 3257 3257 3258 3258 3259 3260 3260 3261 3261 3262 3262
3184 3187 3191 3194 3196 3199 3202 3204 3206 3208 3210 3212 3213 3215 3216 3218 3220 3222 3223 3224 3225 3226 3227 3229 3230 3231 3232 3233 3234 3236 3237 3238 3239 3240 3241 3242 3243 3244 3245 3246 3247 3248 3248 3249 3250 3251 3252 3253 3253 3254 3255 3256 3256 3257 3257 3258 3258 3259 3259 3260 3260 3261 3261
3182 3185 3189 3192 3194 3197 3200 3202 3205 3206 3208 3210 3212 3213 3215 3217 3219 3220 3221 3222 3224 3225 3226 3227 3228 3230 3231 3232 3233 3235 3236 3236 3238 3239 3240 3241 3242 3243 3244 3245 3246 3247 3248 3249 3250 3250 3251 3252 3253 3253 3254 3255 3255 3256 3257 3257 3258 3258 3258 3259 3260 3260 3261
3179 3182 3186 3190 3193 3195 3197 3200 3202 3205 3207 3208 3210 3213 3214 3216 3217 3219 3220 3221 3222 3224 3225 3226 3227 3228 3229 3231 3232 3233 3234 3235 3236 3238 3239 3240 3241 3242 3243 3244 3245 3246 3247 3248 3249 3250 3251 3251 3252 3253 3253 3254 3254 3255 3256 3256 3257 3258 3258 3258 3259 3259 3260
3178 3180 3184 3187 3190 3192 3194 3197 3200 3202 3204 3207 3209 3211 3213 3214 3216 3217 3218 3220 3221 3223 3224 3224 3225 3227 3228 3230 3231 3232 3233 3234 3235 3237 3238 3239 3240 3241 3242 3243 3244 3245 3246 3247 3248 3249 3250 3250 3251 3252 3252 3253 3254 3254 3255 3256 3257 3257 3258 3258 3258 3259 3259
3177 3179 3182 3185 3187 3190 3192 3195 3198 3200 3201 3204 3206 3208 3210 3212 3214 3216 3217 3219 3220 3221 3222 3222 3224 3225 3227 3228 3229 3230 3231 3233 3234 3235 3236 3238 3239 3240 3241 3242 3243 3244 3245 3246 3247 3248 3248 3249 3250 3251 3252 3252 3253 3254 3254 3255 3256 3256 3257 3257 3258 3258 3258
3175 3178 3181 3183 3185 3187 3189 3192 3195 3197 3199 3201 3203 3205 3207 3209 3211 3213 3215 3217 3218 3219 3220 3221 3222 3223 3225 3226 3227 3228 3230 3231 3232 3234 3235 3236 3237 3238 3239 3241 3242 3243 3244 3245 3245 3246 3247 3248 3249 3250 3251 3251 3252 3253 3253 3254 3255 3255 3256 3256 3257 3257 3257
3175 3177 3179 3181 3183 3185 3187 3189 3191 3194 3196 3198 3200 3203 3204 3206 3209 3210 3212 3214 3216 3217 3218 3219 3220 3222 3223 3224 3225 3226 3228 3229 3230 3232 3233 3234 3235 3236 3238 3239 3240 3241 3242 3243 3244 3245 3246 3247 3248 3249 3250 3250 3251 3252 3252 3253 3254 3254 3255 3255 3256 3256 3257
3174 3175 3177 3179 3181 3183 3185 3187 3189 3191 3193 3195 3197 3199 3201 3203 3205 3207 3209 3211 3213 3214 3216 3217 3218 3219 3221 3222 3223 3224 3225 3227 3228 3229 3230 3232 3233 3234 3236 3237 3238 3239 3240 3241 3242 3244 3245 3246 3246 3247 3248 3249 3250 3250 3251 3252 3252 3253 3253 3254 3254 3255 3256
3172 3174 3175 3177 3179 3181 3183 3185 3186 3188 3190 3192 3194 3195 3197 3199 3201 3204 3206 3208 3209 3211 3213 3214 3215 3217 3218 3220 3221 3222 3223 3224 3225 3227 3228 3229 3230 3232 3233 3235 3236 3237 3238 3239 3241 3242 3243 3244 3245 3246 3247 3247 3248 3249 3250 3250 3251 3251 3252 3252 3253 3254 3254
3171 3172 3174 3175 3177 3179 3181 3182 3184 3185 3187 3189 3190 3192 3194 3195 3198 3200 3202 3204 3206 3208 3209 3211 3213 3214 3216 3217 3218 3220 3221 3222 3223 3224 3226 3227 3228 3229 3231 3232 3234 3235 3236 3237 3239 3240 3241 3242 3243 3244 3245 3246 3247 3247 3248 3249 3249 3249 3250 3251 3252 3253 3253
3169 3170 3172 3173 3175 3177 3178 3180 3181 3183 3184 3186 3187 3189 3190 3192 3194 3197 3198 3200 3202 3204 3206 3208 3209 3211 3212 3214 3215 3216 3218 3219 3220 3222 3223 3224 3225 3227 3228 3230 3231 3232 3234 3235 3236 3238 3239 3240 3241 3242 3244 3244 3245 3246 3246 3246 3247 3248 3249 3250 3250 3251 3252
3167 3168 3170 3172 3173 3175 3176 3177 3179 3180 3182 3183 3185 3187 3189 3190 3192 3194 3196 3197 3199 3201 3203 3204 3206 3207 3209 3210 3212 3213 3214 3216 3217 3219 3221 3222 3223 3224 3225 3226 3228 3229 3231 3232 3233 3235 3236 3238 3239 3240 3242 3242 3243 3244 3243 3244 3245 3247 3247 3248 3249 3249 3250
3166 3167 3169 3170 3171 3173 3174 3175 3176 3178 3179 3181 3183 3185 3187 3189 3190 3192 3193 3194 3195 3197 3199 3200 3202 3203 3204 3206 3208 3209 3211 3212 3214 3215 3217 3219 3220 3221 3222 3223 3224 3225 3227 3229 3230 3232 3233 3235 3237 3238 3239 3240 3241 3241 3241 3242 3244 3245 3245 3246 3247 3247 3248
3164 3166 3167 3168 3169 3171 3172 3173 3174 3176 3178 3179 3181 3183 3185 3186 3188 3189 3190 3191 3192 3194 3195 3196 3197 3199 3201 3202 3204 3205 3207 3209 3210 3211 3213 3215 3216 3216 3217 3219 3221 3222 3224 3226 3227 3229 3231 3232 3234 3235 3236 3237 3238 3238 3239 3241 3242 3242 3243 3244 3244 3245 3246
3162 3164 3165 3166 3168 3169 3170 3171 3173 3174 3175 3177 3178 3180 3182 3183 3185 3186 3187 3188 3189 3191 3192 3193 3194 3196 3197 3198 3199 3200 3202 3204 3206 3207 3209 3210 3211 3212 3214 3216 3218 3220 3222 3224 3225 3227 3228 3230 3231 3232 3233 3234 3234 3235 3236 3238 3239 3240 3241 3241 3242 3243 3243
3160 3162 3163 3164 3165 3167 3168 3169 3170 3172 3173 3174 3175 3177 3178 3180 3182 3183 3184 3185 3186 3188 3189 3190 3191 3192 3193 3193 3194 3196 3197 3199 3201 3202 3204 3206 3207 3208 3210 3213 3215 3217 3219 3221 3222 3223 3225 3227 3228 3229 3230 3230 3230 3231 3234 3235 3236 3237 3238 3238 3239 3240 3240
3158 3160 3161 3162 3163 3165 3166 3167 3168 3169 3170 3171 3172 3173 3175 3177 3178 3179 3181 3182 3183 3184 3186 3186 3186 3188 3189 3189 3190 3191 3193 3195 3196 3198 3201 3202 3203 3204 3206 3208 3210 3213 3216 3217 3218 3220 3222 3223 3224 3225 3226 3226 3227 3229 3231 3232 3233 3234 3235 3235 3236 3237 3237
3155 3157 3159 3160 3161 3162 3163 3164 3165 3166 3167 3168 3169 3170 3172 3173 3175 3176 3177 3179 3180 3181 3182 3183 3184 3185 3185 3185 3187 3188 3190 3192 3194 3196 3198 3200 3201 3202 3204 3205 3207 3209 3212 3213 3214 3217 3219 3220 3221 3221 3221 3222 3224 3226 3227 3229 3230 3231 3232 3232 3233 3233 3234
3153 3155 3157 3158 3159 3160 3161 3162 3163 3164 3164 3165 3166 3167 3169 3170 3172 3174 3175 3176 3177 3179 3180 3182 3183 3184 3183 3184 3185 3187 3188 3190 3192 3194 3196 3197 3199 3200 3202 3202 3203 3205 3207 3208 3211 3214 3215 3217 3218 3217 3217 3219 3221 3223 3224 3225 3227 3228 3229 3229 3230 3230 3230
3152 3154 3155 3156 3156 3157 3158 3160 3161 3162 3163 3163 3164 3165 3167 3168 3170 3172 3173 3174 3176 3177 3178 3179 3181 3182 3183 3184 3185 3186 3187 3188 3190 3192 3194 3195 3197 3198 3199 3199 3200 3202 3203 3204 3207 3210 3212 3213 3214 3213 3214 3217 3219 3220 3221 3222 3223 3224 3225 3226 3226 3227 3227
3152 3153 3154 3154 3155 3156 3157 3159 3160 3161 3162 3162 3163 3164 3165 3167 3169 3170 3171 3173 3174 3176 3177 3177 3178 3180 3181 3182 3184 3185 3186 3187 3189 3190 3192 3193 3194 3196 3197 3197 3199 3200 3201 3202 3204 3206 3208 3210 3210 3210 3212 3214 3216 3217 3218 3219 3220 3220 3221 3222 3222 3223 3223
3152 3152 3153 3154 3155 3156 3157 3159 3160 3161 3161 3162 3163 3164 3165 3166 3167 3169 3170 3172 3173 3175 3176 3177 3177 3178 3179 3181 3183 3184 3185 3186 3187 3188 3190 3191 3192 3193 3195 3196 3197 3198 3199 3200 3201 3203 3205 3206 3207 3209 3210 3212 3213 3214 3215 3216 3217 3217 3218 3219 3219 3220 3220
3152 3153 3154 3155 3155 3156 3157 3159 3160 3161 3161 3162 3163 3164 3165 3166 3167 3168 3169 3170 3172 3173 3175 3176 3176 3178 3179 3180 3181 3182 3183 3185 3186 3186 3188 3189 3190 3191 3193 3194 3195 3196 3197 3198 3199 3201 3203 3204 3205 3206 3207 3208 3210 3211 3212 3213 3214 3215 3215 3216 3216 3217 3217
3153 3153 3153 3154 3155 3155 3156 3158 3159 3160 3161 3162 3163 3164 3164 3165 3166 3167 3169 3170 3170 3172 3173 3174 3175 3177 3178 3179 3180 3181 3182 3183 3184 3184 3185 3187 3189 3190 3191 3192 3193 3194 3195 3196 3198 3199 3200 3202 3203 3203 3203 3204 3205 3207 3208 3209 3211 3212 3212 3213 3213 3213 3214
3152 3152 3152 3152 3154 3155 3156 3157 3159 3160 3161 3162 3162 3163 3164 3165 3166 3167 3168 3169 3170 3171 3172 3173 3174 3175 3176 3177 3179 3180 3181 3182 3183 3184 3184 3186 3187 3188 3189 3191 3192 3193 3194 3195 3196 3197 3198 3200 3201 3201 3202 3203 3203 3204 3205 3207 3208 3209 3210 3210 3211 3211 3211
3149 3150 3151 3151 3152 3154 3156 3157 3158 3159 3160 3161 3162 3163 3163 3164 3165 3167 3168 3169 3170 3170 3171 3172 3173 3174 3175 3176 3177 3179 3180 3181 3182 3183 3184 3185 3186 3187 3188 3189 3191 3193 3194 3194 3195 3196 3197 3198 3199 3200 3201 3202 3202 3203 3204 3206 3207 3207 3208 3208 3209 3210 3210
3147 3148 3149 3150 3151 3152 3154 3156 3157 3158 3159 3160 3161 3162 3162 3163 3164 3165 3167 3168 3169 3169 3170 3171 3172 3173 3174 3175 3176 3177 3179 3180 3181 3182 3183 3184 3185 3185 3186 3188 3190 3191 3193 3193 3194 3194 3196 3197 3197 3198 3199 3200 3201 3202 3203 3204 3204 3205 3206 3206 3207 3207 3207
3146 3146 3147 3148 3149 3150 3152 3154 3156 3157 3158 3160 3161 3161 3162 3162 3163 3164 3165 3166 3167 3168 3169 3170 3171 3172 3173 3174 3175 3176 3177 3178 3179 3180 3181 3182 3183 3184 3185 3187 3188 3189 3190 3191 3192 3193 3194 3195 3196 3197 3198 3199 3199 3200 3200 3201 3202 3202 3203 3203 3204 3204 3204
3145 3145 3145 3145 3146 3148 3150 3152 3154 3156 3158 3159 3160 3160 3161 3161 3162 3163 3164 3165 3166 3167 3168 3169 3170 3171 3172 3173 3174 3175 3176 3177 3178 3179 3180 3181 3182 3183 3184 3185 3186 3187 3189 3190 3190 3191 3192 3193 3194 3194 3195 3196 3197 3197 3198 3199 3199 3200 3200 3201 3201 3201 3201
3144 3144 3144 3143 3144 3146 3148 3151 3153 3155 3156 3157 3158 3159 3159 3160 3161 3162 3162 3163 3164 3165 3166 3168 3169 3169 3170 3171 3172 3173 3174 3175 3176 3177 3178 3179 3180 3181 3182 3183 3184 3185 3186 3187 3188 3189 3190 3190 3191 3192 3193 3193 3194 3195 3195 3196 3196 3197 3197 3198 3198 3198 3198
3141 3141 3142 3142 3142 3143 3145 3148 3151 3153 3154 3156 3156 3157 3158 3159 3160 3161 3161 3162 3162 3163 3164 3165 3166 3167 3168 3169 3170 3171 3172 3173 3174 3175 3176 3177 3178 3179 3180 3181 3182 3183 3184 3185 3185 3186 3187 3188 3188 3189 3190 3190 3191 3191 3192 3192 3193 3193 3194 3194 3194 3194 3194
3138 3138 3139 3140 3142 3143 3143 3145 3147 3149 3151 3153 3154 3155 3156 3157 3158 3159 3160 3160 3161 3161 3162 3163 3164 3165 3166 3167 3168 3169 3169 3170 3171 3172 3173 3174 3175 3176 3177 3178 3179 3180 3181 3182 3183 3183 3184 3185 3185 3186 3186 3187 3187 3188 3188 3188 3189 3189 3190 3190 3190 3190 3190